Buffalo, WY

1:08 AM MDT on August 21, 2014 (GMT -0600)
Esponda Ranch | Change Station
CLOSE
Current Station
Personal Weather Station
Location: Buffalo, WY
Elevation: 4665 ft
Nearby Weather Stations

Elev 4665 ft 44.32 °N, 106.67 °W | Updated 1 minute ago

Partly Cloudy
Partly Cloudy
59.7 °F
Feels Like 59.7 °F
N
2.0
Wind Variable Wind from SSW
Gusts 3.0 mph

Today
High -- | Low -- °F
--% Chance of Precip.
Yesterday
High -- | Low -- °F
Precip. -- in
6:17 AM 8:02 PM
Waning Crescent, 16% visible
Pressure 29.83 in
Visibility 10.0 miles
Clouds Few 11000 ft
Dew Point 51 °F
Humidity 72%
Rainfall 0.00 in
Snow Depth Not available.
UV 0 out of 12
Pollen 8.70 out of 12
Air Quality Not available.
Flu Activity Not available.
METAR KBYG 210653Z AUTO 20003KT 10SM FEW110 16/08 A2999 RMK AO2 RAB07E20 SLP102 P0000 T01560083 402560150 $

More Conditions Fewer Conditions

Pressure 29.83 in
Visibility 10.0 miles
Clouds Few 11000 ft
Dew Point 51 °F
Humidity 72%
Rainfall 0.00 in
Snow Depth Not available.
UV 0 out of 12
Pollen 8.70 out of 12
Air Quality Not available.
Flu Activity Not available.
METAR KBYG 210653Z AUTO 20003KT 10SM FEW110 16/08 A2999 RMK AO2 RAB07E20 SLP102 P0000 T01560083 402560150 $

More Conditions Fewer Conditions

10-Day Weather Forecast

Almanac

Astronomy

Aug. 21, 2014 Rise Set
Actual Time 6:17 AM MDT 8:02 PM MDT
Civil Twilight 5:46 AM MDT 8:32 PM MDT
Nautical Twilight 5:08 AM MDT 9:10 PM MDT
Astronomical Twilight 4:27 AM MDT 9:50 PM MDT
Moon 2:46 AM MDT 5:35 PM MDT
Length of Visible Light 14h 46m
Length of Day
13h 45m
Tomorrow will be 2m 50s shorter.
Waning Crescent, 16% of the Moon is Illuminated
Today
Waning Crescent
Aug 25
New
Sep 2
First Quarter
Sep 8
Full
Sep 15
Last Quarter

Today's Extremes

State Highs State Lows

Community

WunderPhotos

Upload Photos

1,745,858 photos uploaded!

Nearby

Snow Depth

Station Depth Elevation
Bald Mountain 0 in 9380 ft
Casper Mountain 0 in 7850 ft
Reno Hill 0 in 8500 ft
Cold Springs 0 in 9630 ft
Little Warm 0 in 9370 ft

Earthquake Activity

City Distance Mag. Time & Date
No recent earthquake activity has been reported nearby.
Minimum magnitude displayed is 2.5.

Coastal Water Temperatures

Place Temperature
No Stations Reporting

Nearby Weather Stations